Flag for Australia Weather past 2 weeks in Cairns, Queensland, Australia

75 °F

Passing clouds.

Feels Like: 74 °F
Forecast: 74 / 86 °F
Wind: 5 mph from Southeast

Location: Cairns Airport

Current Time: Nov 30, 2015 at 12:16:17 AM

Latest Report: Nov 29, 2015 at 11:30 PM

Visibility: N/A

Pressure: 29.86 "Hg

Humidity: 94%

Dew point: 73 °F

Location of CairnsLocation

Historic Weather in Cairns — Graph


Cairns temperature yesterday

Maximum temperature yesterday: 88 °F (at 10:00 AM)
Minimum temperature yesterday: 75 °F (at 3:30 AM)
Average temperature yesterday: 81 °F

Past Weeks' High & Low Weather Summary

High90 °F (Nov 18, 12:00 PM)100% (Nov 15, 9:30 PM)30.01 "Hg (Nov 15, 9:30 PM)
Low70 °F (Nov 20, 2:30 AM)35% (Nov 19, 2:00 PM)29.74 "Hg (Nov 15, 1:30 PM)
Average80 °F76%29.87 "Hg
* Reported Nov 14 11:00 PM — Nov 29 11:00 PM, Cairns, Weather by CustomWeather, © 2015

Note: Actual official high and low records may vary slightly from our data, if they occured in-between our weather recording intervals... More about our weather records


Cairns weather history for previous 24 hours

Time TempWeatherWind HumidityBarometerVisibility
11:00 PM
Sun, Nov 29
77 °FPassing clouds.1 mph89%29.86 "HgN/A
10:30 PM77 °FPassing clouds.No wind89%29.89 "HgN/A
10:00 PM77 °FPassing clouds.3 mph89%29.89 "HgN/A
9:30 PM77 °FPassing clouds.3 mph89%29.86 "HgN/A
9:00 PM79 °FPassing clouds.No wind84%29.86 "HgN/A
8:30 PM79 °FPassing clouds.No wind84%29.86 "HgN/A
8:00 PM79 °FPassing clouds.No wind84%29.86 "HgN/A
7:30 PM81 °FPassing clouds.5 mph79%29.83 "HgN/A
7:00 PM81 °FPassing clouds.5 mph79%29.83 "HgN/A
6:00 PM82 °FOvercast.7 mph74%29.80 "HgN/A
5:00 PM82 °FOvercast.8 mph70%29.80 "HgN/A
4:30 PM84 °FPartly sunny.9 mph70%29.80 "HgN/A
4:00 PM84 °FPartly sunny.10 mph70%29.80 "HgN/A
3:00 PM86 °FPartly sunny.12 mph66%29.83 "HgN/A
2:30 PM88 °FPartly sunny.13 mph62%29.83 "HgN/A
2:00 PM86 °FPartly sunny.13 mph66%29.83 "HgN/A
1:00 PM86 °FPartly sunny.15 mph66%29.86 "HgN/A
12:30 PM86 °FPartly sunny.16 mph66%29.89 "HgN/A
12:00 PM88 °FPartly sunny.15 mph66%29.89 "HgN/A
11:30 AM86 °FPartly sunny.14 mph66%29.89 "HgN/A
11:00 AM88 °FPartly sunny.13 mph62%29.92 "HgN/A
10:30 AM86 °FPartly sunny.14 mph62%29.92 "HgN/A
10:00 AM88 °FScattered clouds.10 mph59%29.92 "HgN/A
9:30 AM86 °FScattered clouds.9 mph59%29.92 "HgN/A
9:00 AM86 °FScattered clouds.6 mph59%29.92 "HgN/A
8:00 AM82 °FScattered clouds.7 mph70%29.92 "HgN/A
7:00 AM81 °FScattered clouds.7 mph74%29.92 "HgN/A
6:30 AM79 °FPartly sunny.8 mph79%29.92 "HgN/A
6:00 AM77 °FScattered clouds.8 mph89%29.89 "HgN/A
5:30 AM75 °FPassing clouds.1 mph94%29.89 "HgN/A
5:00 AM75 °FPassing clouds.2 mph94%29.89 "HgN/A
4:30 AM75 °FPassing clouds.6 mph94%29.86 "HgN/A
4:00 AM75 °FPassing clouds.2 mph94%29.86 "HgN/A
3:30 AM75 °FPassing clouds.No wind94%29.86 "HgN/A
3:00 AM77 °FPassing clouds.3 mph89%29.86 "HgN/A
2:30 AM79 °FPassing clouds.6 mph79%29.86 "HgN/A
2:00 AM79 °FPassing clouds.7 mph84%29.86 "HgN/A
1:30 AM81 °FPassing clouds.6 mph79%29.86 "HgN/A
1:00 AM81 °FPassing clouds.7 mph79%29.86 "HgN/A
12:30 AM81 °FPassing clouds.7 mph79%29.89 "HgN/A
12:00 AM81 °FMostly cloudy.7 mph79%29.89 "HgN/A
Weather by CustomWeather, © 2015

See weather overviewHow to use our weather pages